#Datum;Uhrzeit;WR;Pac;DaySum;Status;WR;Pac;DaySum;Status;Pdc1;Udc;Temp;WR;Pac;DaySum;Status;Pdc1;Udc;Temp;WR;Pac;DaySum;Status;Pdc1;Udc;Temp;WR;Pac;DaySum;Status;Pdc1;Pdc2;Udc1;Udc2;Temp;WR;Pac;DaySum;Status;Pdc1;Pdc2;Udc1;Udc2;Temp;WR;Pac;DaySum;Status;Pdc1;Udc;Temp;WR;Pac;DaySum;Status;Pdc1;Udc;Temp;WR;Pac;DaySum;Status;Pdc1;Udc;Temp
19.03.18;23:55:00;1;466;12060;0;2;0;6940;0;0;0;0;3;0;6232;0;0;0;0;4;0;7039;0;0;0;0;5;0;20365;0;0;0;0;0;0;6;0;15112;0;0;0;0;0;0;7;0;11032;0;0;0;0;8;0;11052;0;0;0;0;9;0;5984;0;0;0;0
19.03.18;23:50:00;1;1006;12021;0;2;0;6940;0;0;0;0;3;0;6232;0;0;0;0;4;0;7039;0;0;0;0;5;0;20365;0;0;0;0;0;0;6;0;15112;0;0;0;0;0;0;7;0;11032;0;0;0;0;8;0;11052;0;0;0;0;9;0;5984;0;0;0;0
19.03.18;23:45:00;1;469;11954;0;2;0;6940;0;0;0;0;3;0;6232;0;0;0;0;4;0;7039;0;0;0;0;5;0;20365;0;0;0;0;0;0;6;0;15112;0;0;0;0;0;0;7;0;11032;0;0;0;0;8;0;11052;0;0;0;0;9;0;5984;0;0;0;0
19.03.18;23:40:00;1;432;11915;0;2;0;6940;0;0;0;0;3;0;6232;0;0;0;0;4;0;7039;0;0;0;0;5;0;20365;0;0;0;0;0;0;6;0;15112;0;0;0;0;0;0;7;0;11032;0;0;0;0;8;0;11052;0;0;0;0;9;0;5984;0;0;0;0
19.03.18;23:35:00;1;413;11881;0;2;0;6940;0;0;0;0;3;0;6232;0;0;0;0;4;0;7039;0;0;0;0;5;0;20365;0;0;0;0;0;0;6;0;15112;0;0;0;0;0;0;7;0;11032;0;0;0;0;8;0;11052;0;0;0;0;9;0;5984;0;0;0;0
19.03.18;23:30:00;1;424;11845;0;2;0;6940;0;0;0;0;3;0;6232;0;0;0;0;4;0;7039;0;0;0;0;5;0;20365;0;0;0;0;0;0;6;0;15112;0;0;0;0;0;0;7;0;11032;0;0;0;0;8;0;11052;0;0;0;0;9;0;5984;0;0;0;0
19.03.18;23:25:00;1;616;11801;0;2;0;6940;0;0;0;0;3;0;6232;0;0;0;0;4;0;7039;0;0;0;0;5;0;20365;0;0;0;0;0;0;6;0;15112;0;0;0;0;0;0;7;0;11032;0;0;0;0;8;0;11052;0;0;0;0;9;0;5984;0;0;0;0
19.03.18;23:20:00;1;439;11745;0;2;0;6940;0;0;0;0;3;0;6232;0;0;0;0;4;0;7039;0;0;0;0;5;0;20365;0;0;0;0;0;0;6;0;15112;0;0;0;0;0;0;7;0;11032;0;0;0;0;8;0;11052;0;0;0;0;9;0;5984;0;0;0;0
19.03.18;23:15:00;1;441;11708;0;2;0;6940;0;0;0;0;3;0;6232;0;0;0;0;4;0;7039;0;0;0;0;5;0;20365;0;0;0;0;0;0;6;0;15112;0;0;0;0;0;0;7;0;11032;0;0;0;0;8;0;11052;0;0;0;0;9;0;5984;0;0;0;0
19.03.18;23:10:00;1;410;11671;0;2;0;6940;0;0;0;0;3;0;6232;0;0;0;0;4;0;7039;0;0;0;0;5;0;20365;0;0;0;0;0;0;6;0;15112;0;0;0;0;0;0;7;0;11032;0;0;0;0;8;0;11052;0;0;0;0;9;0;5984;0;0;0;0
19.03.18;23:05:00;1;602;11636;0;2;0;6940;0;0;0;0;3;0;6232;0;0;0;0;4;0;7039;0;0;0;0;5;0;20365;0;0;0;0;0;0;6;0;15112;0;0;0;0;0;0;7;0;11032;0;0;0;0;8;0;11052;0;0;0;0;9;0;5984;0;0;0;0
19.03.18;23:00:00;1;398;11574;0;2;0;6940;0;0;0;0;3;0;6232;0;0;0;0;4;0;7039;0;0;0;0;5;0;20365;0;0;0;0;0;0;6;0;15112;0;0;0;0;0;0;7;0;11032;0;0;0;0;8;0;11052;0;0;0;0;9;0;5984;0;0;0;0
19.03.18;22:55:00;1;398;11541;0;2;0;6940;0;0;0;0;3;0;6232;0;0;0;0;4;0;7039;0;0;0;0;5;0;20365;2;0;0;0;0;0;6;0;15112;2;0;0;0;0;0;7;0;11032;0;0;0;0;8;0;11052;0;0;0;0;9;0;5984;0;0;0;0
19.03.18;22:50:00;1;400;11508;0;2;0;6940;0;0;0;0;3;0;6232;0;0;0;0;4;0;7039;0;0;0;0;5;0;20365;2;0;0;0;0;0;6;0;15112;2;0;0;0;0;0;7;0;11032;0;0;0;0;8;0;11052;0;0;0;0;9;0;5984;0;0;0;0
19.03.18;22:45:00;1;396;11475;0;2;0;6940;0;0;0;0;3;0;6232;0;0;0;0;4;0;7039;0;0;0;0;5;0;20365;2;0;0;0;0;0;6;0;15112;2;0;0;0;0;0;7;0;11032;0;0;0;0;8;0;11052;0;0;0;0;9;0;5984;0;0;0;0
19.03.18;22:40:00;1;763;11442;0;2;0;6940;0;0;0;0;3;0;6232;0;0;0;0;4;0;7039;0;0;0;0;5;0;20365;2;0;0;0;0;0;6;0;15112;2;0;0;0;0;0;7;0;11032;0;0;0;0;8;0;11052;0;0;0;0;9;0;5984;0;0;0;0
19.03.18;22:35:00;1;388;11380;0;2;0;6940;0;0;0;0;3;0;6232;0;0;0;0;4;0;7039;0;0;0;0;5;0;20365;2;0;0;0;0;0;6;0;15112;2;0;0;0;0;0;7;0;11032;0;0;0;0;8;0;11052;0;0;0;0;9;0;5984;0;0;0;0
19.03.18;22:30:00;1;425;11348;0;2;0;6940;0;0;0;0;3;0;6232;0;0;0;0;4;0;7039;0;0;0;0;5;0;20365;2;0;0;0;0;0;6;0;15112;2;0;0;0;0;0;7;0;11032;0;0;0;0;8;0;11052;0;0;0;0;9;0;5984;0;0;0;0
19.03.18;22:25:00;1;465;11312;0;2;0;6940;0;0;0;0;3;0;6232;0;0;0;0;4;0;7039;0;0;0;0;5;0;20365;2;0;0;0;0;0;6;0;15112;2;0;0;0;0;0;7;0;11032;0;0;0;0;8;0;11052;0;0;0;0;9;0;5984;0;0;0;0
19.03.18;22:20:00;1;481;11273;0;2;0;6940;0;0;0;0;3;0;6232;0;0;0;0;4;0;7039;0;0;0;0;5;0;20365;2;0;0;0;0;0;6;0;15112;2;0;0;0;0;0;7;0;11032;0;0;0;0;8;0;11052;0;0;0;0;9;0;5984;0;0;0;0
19.03.18;22:15:00;1;837;11213;0;2;0;6940;0;0;0;0;3;0;6232;0;0;0;0;4;0;7039;0;0;0;0;5;0;20365;2;0;0;0;0;0;6;0;15112;2;0;0;0;0;0;7;0;11032;0;0;0;0;8;0;11052;0;0;0;0;9;0;5984;0;0;0;0
19.03.18;22:10:00;1;617;11150;0;2;0;6940;0;0;0;0;3;0;6232;0;0;0;0;4;0;7039;0;0;0;0;5;0;20365;2;0;0;0;0;0;6;0;15112;2;0;0;0;0;0;7;0;11032;0;0;0;0;8;0;11052;0;0;0;0;9;0;5984;0;0;0;0
19.03.18;22:05:00;1;606;11098;0;2;0;6940;0;0;0;0;3;0;6232;0;0;0;0;4;0;7039;0;0;0;0;5;0;20365;2;0;0;0;0;0;6;0;15112;2;0;0;0;0;0;7;0;11032;0;0;0;0;8;0;11052;0;0;0;0;9;0;5984;0;0;0;0
19.03.18;22:00:00;1;615;11048;0;2;0;6940;0;0;0;0;3;0;6232;0;0;0;0;4;0;7039;0;0;0;0;5;0;20365;2;0;0;0;0;0;6;0;15112;2;0;0;0;0;0;7;0;11032;0;0;0;0;8;0;11052;0;0;0;0;9;0;5984;0;0;0;0
19.03.18;21:55:00;1;826;10997;0;2;0;6940;0;0;0;0;3;0;6232;0;0;0;0;4;0;7039;0;0;0;0;5;0;20365;2;0;0;0;0;0;6;0;15112;2;0;0;0;0;0;7;0;11032;0;0;0;0;8;0;11052;0;0;0;0;9;0;5984;0;0;0;0
19.03.18;21:50:00;1;644;10917;0;2;0;6940;0;0;0;0;3;0;6232;0;0;0;0;4;0;7039;0;0;0;0;5;0;20365;2;0;0;0;0;0;6;0;15112;2;0;0;0;0;0;7;0;11032;0;0;0;0;8;0;11052;0;0;0;0;9;0;5984;0;0;0;0
19.03.18;21:45:00;1;634;10863;0;2;0;6940;0;0;0;0;3;0;6232;0;0;0;0;4;0;7039;0;0;0;0;5;0;20365;2;0;0;0;0;0;6;0;15112;2;0;0;0;0;0;7;0;11032;0;0;0;0;8;0;11052;0;0;0;0;9;0;5984;0;0;0;0
19.03.18;21:40:00;1;682;10809;0;2;0;6940;0;0;0;0;3;0;6232;0;0;0;0;4;0;7039;0;0;0;0;5;0;20365;2;0;0;0;0;0;6;0;15112;2;0;0;0;0;0;7;0;11032;0;0;0;0;8;0;11052;0;0;0;0;9;0;5984;0;0;0;0
19.03.18;21:35:00;1;630;10755;0;2;0;6940;0;0;0;0;3;0;6232;0;0;0;0;4;0;7039;0;0;0;0;5;0;20365;2;0;0;0;0;0;6;0;15112;2;0;0;0;0;0;7;0;11032;0;0;0;0;8;0;11052;0;0;0;0;9;0;5984;0;0;0;0
19.03.18;21:30:00;1;914;10702;0;2;0;6940;0;0;0;0;3;0;6232;0;0;0;0;4;0;7039;0;0;0;0;5;0;20365;2;0;0;0;0;0;6;0;15112;2;0;0;0;0;0;7;0;11032;0;0;0;0;8;0;11052;0;0;0;0;9;0;5984;0;0;0;0
19.03.18;21:25:00;1;595;10620;0;2;0;6940;0;0;0;0;3;0;6232;0;0;0;0;4;0;7039;0;0;0;0;5;0;20365;2;0;0;0;0;0;6;0;15112;2;0;0;0;0;0;7;0;11032;0;0;0;0;8;0;11052;0;0;0;0;9;0;5984;0;0;0;0
19.03.18;21:20:00;1;583;10570;0;2;0;6940;0;0;0;0;3;0;6232;0;0;0;0;4;0;7039;0;0;0;0;5;0;20365;2;0;0;0;0;0;6;0;15112;2;0;0;0;0;0;7;0;11032;0;0;0;0;8;0;11052;0;0;0;0;9;0;5984;0;0;0;0
19.03.18;21:15:00;1;559;10520;0;2;0;6940;0;0;0;0;3;0;6232;0;0;0;0;4;0;7039;0;0;0;0;5;0;20365;2;0;0;0;0;0;6;0;15112;2;0;0;0;0;0;7;0;11032;0;0;0;0;8;0;11052;0;0;0;0;9;0;5984;0;0;0;0
19.03.18;21:10:00;1;558;10474;0;2;0;6940;0;0;0;0;3;0;6232;0;0;0;0;4;0;7039;0;0;0;0;5;0;20365;2;0;0;0;0;0;6;0;15112;2;0;0;0;0;0;7;0;11032;0;0;0;0;8;0;11052;0;0;0;0;9;0;5984;0;0;0;0
19.03.18;21:05:00;1;743;10413;0;2;0;6940;0;0;0;0;3;0;6232;0;0;0;0;4;0;7039;0;0;0;0;5;0;20365;2;0;0;0;0;0;6;0;15112;2;0;0;0;0;0;7;0;11032;0;0;0;0;8;0;11052;0;0;0;0;9;0;5984;0;0;0;0
19.03.18;21:00:00;1;543;10353;0;2;0;6940;0;0;0;0;3;0;6232;0;0;0;0;4;0;7039;0;0;0;0;5;0;20365;2;0;0;0;0;0;6;0;15112;2;0;0;0;0;0;7;0;11032;0;0;0;0;8;0;11052;0;0;0;0;9;0;5984;0;0;0;0
19.03.18;20:55:00;1;551;10307;0;2;0;6940;0;0;0;0;3;0;6232;0;0;0;0;4;0;7039;0;0;0;0;5;0;20365;2;0;0;0;0;0;6;0;15112;2;0;0;0;0;0;7;0;11032;0;0;0;0;8;0;11052;0;0;0;0;9;0;5984;0;0;0;0
19.03.18;20:50:00;1;560;10261;0;2;0;6940;0;0;0;0;3;0;6232;0;0;0;0;4;0;7039;0;0;0;0;5;0;20365;2;0;0;0;0;0;6;0;15112;2;0;0;0;0;0;7;0;11032;0;0;0;0;8;0;11052;0;0;0;0;9;0;5984;0;0;0;0
19.03.18;20:45:00;1;768;10214;0;2;0;6940;0;0;0;0;3;0;6232;0;0;0;0;4;0;7039;0;0;0;0;5;0;20365;2;0;0;0;0;0;6;0;15112;2;0;0;0;0;0;7;0;11032;0;0;0;0;8;0;11052;0;0;0;0;9;0;5984;0;0;0;0
19.03.18;20:40:00;1;559;10139;0;2;0;6940;0;0;0;0;3;0;6232;0;0;0;0;4;0;7039;0;0;0;0;5;0;20365;2;0;0;0;0;0;6;0;15112;2;0;0;0;0;0;7;0;11032;0;0;0;0;8;0;11052;0;0;0;0;9;0;5984;0;0;0;0
19.03.18;20:35:00;1;595;10092;0;2;0;6940;0;0;0;0;3;0;6232;0;0;0;0;4;0;7039;0;0;0;0;5;0;20365;2;0;0;0;0;0;6;0;15112;2;0;0;0;0;0;7;0;11032;0;0;0;0;8;0;11052;0;0;0;0;9;0;5984;0;0;0;0
19.03.18;20:30:00;1;2474;10042;0;2;0;6940;0;0;0;0;3;0;6232;0;0;0;0;4;0;7039;0;0;0;0;5;0;20365;2;0;0;0;0;0;6;0;15112;2;0;0;0;0;0;7;0;11032;0;0;0;0;8;0;11052;0;0;0;0;9;0;5984;0;0;0;0
19.03.18;20:25:00;1;2478;9836;0;2;0;6940;0;0;0;0;3;0;6232;0;0;0;0;4;0;7039;0;0;0;0;5;0;20365;2;0;0;0;0;0;6;0;15112;2;0;0;0;0;0;7;0;11032;0;0;0;0;8;0;11052;0;0;0;0;9;0;5984;0;0;0;0
19.03.18;20:20:00;1;2798;9629;0;2;0;6940;0;0;0;0;3;0;6232;0;0;0;0;4;0;7039;0;0;0;0;5;0;20365;2;0;0;0;0;0;6;0;15112;2;0;0;0;0;0;7;0;11032;0;0;0;0;8;0;11052;0;0;0;0;9;0;5984;0;0;0;0
19.03.18;20:15:00;1;1821;9395;0;2;0;6940;0;0;0;0;3;0;6232;0;0;0;0;4;0;7039;0;0;0;0;5;0;20365;2;0;0;0;0;0;6;0;15112;2;0;0;0;0;0;7;0;11032;0;0;0;0;8;0;11052;0;0;0;0;9;0;5984;0;0;0;0
19.03.18;20:10:00;1;2010;9181;0;2;0;6940;0;0;0;0;3;0;6232;0;0;0;0;4;0;7039;0;0;0;0;5;0;20365;2;0;0;0;0;0;6;0;15112;2;0;0;0;0;0;7;0;11032;0;0;0;0;8;0;11052;0;0;0;0;9;0;5984;0;0;0;0
19.03.18;20:05:00;1;687;9041;0;2;0;6940;0;0;0;0;3;0;6232;0;0;0;0;4;0;7039;0;0;0;0;5;0;20365;2;0;0;0;0;0;6;0;15112;2;0;0;0;0;0;7;0;11032;0;0;0;0;8;0;11052;0;0;0;0;9;0;5984;0;0;0;0
19.03.18;20:00:00;1;692;8984;0;2;0;6940;0;0;0;0;3;0;6232;0;0;0;0;4;0;7039;0;0;0;0;5;0;20365;2;0;0;0;0;0;6;0;15112;2;0;0;0;0;0;7;0;11032;0;0;0;0;8;0;11052;0;0;0;0;9;0;5984;0;0;0;0
19.03.18;19:55:00;1;2988;8899;0;2;0;6940;0;0;0;0;3;0;6232;0;0;0;0;4;0;7039;0;0;0;0;5;0;20365;2;0;0;0;0;0;6;0;15112;2;0;0;0;0;0;7;0;11032;0;0;0;0;8;0;11052;0;0;0;0;9;0;5984;0;0;0;0
19.03.18;19:50:00;1;629;8668;0;2;0;6940;0;0;0;0;3;0;6232;0;0;0;0;4;0;7039;0;0;0;0;5;0;20365;2;0;0;0;0;0;6;0;15112;2;0;0;0;0;0;7;0;11032;0;0;0;0;8;0;11052;0;0;0;0;9;0;5984;0;0;0;0
19.03.18;19:45:00;1;2289;8616;0;2;0;6940;0;0;0;0;3;0;6232;0;0;0;0;4;0;7039;0;0;0;0;5;0;20365;2;0;0;0;0;0;6;0;15112;2;0;0;0;0;0;7;0;11032;0;0;0;0;8;0;11052;0;0;0;0;9;0;5984;0;0;0;0
19.03.18;19:40:00;1;1890;8425;0;2;0;6940;0;0;0;0;3;0;6232;0;0;0;0;4;0;7039;0;0;0;0;5;0;20365;2;0;0;0;0;0;6;0;15112;2;0;0;0;0;0;7;0;11032;0;0;0;0;8;0;11052;0;0;0;0;9;0;5984;0;0;0;0
19.03.18;19:35:00;1;879;8274;0;2;0;6940;0;0;0;0;3;0;6232;0;0;0;0;4;0;7039;0;0;0;0;5;0;20365;2;0;0;0;0;0;6;0;15112;2;0;0;0;0;0;7;0;11032;0;0;0;0;8;0;11052;0;0;0;0;9;0;5984;0;0;0;0
19.03.18;19:30:00;1;2594;8171;0;2;0;6940;0;0;0;0;3;0;6232;0;0;0;0;4;0;7039;0;0;0;0;5;0;20365;2;0;0;0;0;0;6;0;15112;2;0;0;0;0;0;7;0;11032;0;0;0;0;8;0;11052;0;0;0;0;9;0;5984;0;0;0;0
19.03.18;19:25:00;1;2208;7970;0;2;0;6940;0;0;0;0;3;0;6232;0;0;0;0;4;0;7039;0;0;0;0;5;0;20365;2;0;0;0;0;0;6;0;15112;2;0;0;0;0;0;7;0;11032;0;0;0;0;8;0;11052;0;0;0;0;9;0;5984;0;0;0;0
19.03.18;19:20:00;1;507;7816;0;2;0;6940;0;0;0;0;3;0;6232;0;0;0;0;4;0;7039;0;0;0;0;5;0;20365;2;0;0;0;0;0;6;0;15112;2;0;0;0;0;0;7;0;11032;0;0;0;0;8;0;11052;0;0;0;0;9;0;5984;0;0;0;0
19.03.18;19:15:00;1;517;7774;0;2;0;6940;0;0;0;0;3;0;6232;0;0;0;0;4;0;7039;0;0;0;0;5;0;20365;2;0;0;0;0;0;6;0;15112;2;0;0;0;0;0;7;0;11032;0;0;0;0;8;0;11052;0;0;0;0;9;0;5984;0;0;0;0
19.03.18;19:10:00;1;522;7730;0;2;0;6940;0;0;0;0;3;0;6232;0;0;0;0;4;0;7039;0;0;0;0;5;0;20365;2;0;0;0;0;0;6;0;15112;2;0;0;0;0;0;7;0;11032;0;0;0;0;8;0;11052;0;0;0;0;9;0;5984;0;0;0;0
19.03.18;19:05:00;1;934;7687;0;2;0;6940;0;0;0;0;3;0;6232;0;0;0;0;4;0;7039;0;0;0;0;5;0;20365;2;0;0;0;0;0;6;0;15112;2;0;0;0;0;0;7;0;11032;0;0;0;0;8;0;11052;0;0;0;0;9;0;5984;0;0;0;0
19.03.18;19:00:00;1;369;7613;0;2;0;6940;0;0;0;0;3;0;6232;0;0;0;0;4;0;7039;0;0;0;0;5;0;20365;2;0;0;0;0;0;6;0;15112;2;0;0;0;0;0;7;0;11032;0;0;0;0;8;0;11052;0;0;0;0;9;0;5984;0;0;0;0
19.03.18;18:55:00;1;305;7583;0;2;0;6940;0;0;0;0;3;0;6232;0;0;0;0;4;0;7039;0;0;0;0;5;0;20365;2;0;0;0;0;0;6;0;15112;2;0;0;0;0;0;7;0;11032;0;0;0;0;8;0;11052;0;0;0;0;9;0;5984;0;0;0;0
19.03.18;18:50:00;1;304;7558;0;2;0;6940;0;0;0;0;3;0;6232;0;0;0;0;4;0;7039;0;0;0;0;5;0;20365;2;0;0;0;0;0;6;0;15112;2;0;0;0;0;0;7;0;11032;0;0;0;0;8;0;11052;0;0;0;0;9;0;5984;0;0;0;0
19.03.18;18:45:00;1;413;7532;0;2;0;6940;0;0;0;0;3;0;6232;0;0;0;0;4;0;7039;0;0;0;0;5;0;20365;2;0;0;0;0;0;6;0;15112;2;0;0;0;0;0;7;0;11032;0;0;0;0;8;0;11052;0;0;0;0;9;0;5984;0;0;0;0
19.03.18;18:40:00;1;686;7482;0;2;0;6940;0;0;0;0;3;0;6232;0;0;0;0;4;0;7039;0;0;0;0;5;0;20365;2;0;0;0;0;0;6;0;15112;2;0;0;0;0;0;7;0;11032;0;0;0;0;8;0;11052;0;0;0;0;9;0;5984;0;0;0;0
19.03.18;18:35:00;1;310;7445;0;2;0;6940;0;0;0;0;3;0;6232;0;0;87;4;4;0;7039;0;0;0;0;5;0;20365;2;0;0;0;0;0;6;0;15112;2;0;0;0;0;0;7;0;11032;0;0;0;0;8;0;11052;0;0;0;0;9;0;5984;0;0;0;0
19.03.18;18:30:00;1;269;7419;0;2;0;6940;6;0;259;10;3;0;6232;6;0;295;14;4;0;7039;0;0;0;0;5;0;20365;2;0;0;0;0;0;6;0;15112;2;0;0;0;0;0;7;0;11032;0;0;0;0;8;0;11052;0;0;0;0;9;0;5984;0;0;0;0
19.03.18;18:25:00;1;304;7397;0;2;0;6940;6;0;279;10;3;0;6232;6;0;304;14;4;0;7039;0;0;0;0;5;0;20365;2;0;0;0;0;0;6;0;15112;1;0;0;0;0;0;7;0;11032;0;0;0;0;8;0;11052;0;0;0;0;9;0;5984;0;0;0;0
19.03.18;18:20:00;1;709;7371;0;2;0;6940;6;0;304;10;3;0;6232;6;0;358;14;4;0;7039;0;0;28;2;5;0;20365;2;0;3;34;33;5;6;0;15112;1;0;0;0;0;0;7;0;11032;0;0;0;0;8;0;11052;0;0;0;0;9;0;5984;0;0;0;0
19.03.18;18:15:00;1;430;7300;0;2;0;6940;6;0;336;10;3;0;6232;6;1;396;14;4;0;7039;2;0;88;5;5;0;20365;26;0;0;235;271;15;6;0;15112;1;5;3;133;286;13;7;0;11032;0;0;0;0;8;0;11052;0;0;0;0;9;0;5984;0;0;41;1
19.03.18;18:10:00;1;422;7264;0;2;0;6940;6;0;369;11;3;0;6232;6;1;451;14;4;0;7039;1;0;130;5;5;0;20365;23;0;0;407;432;19;6;0;15112;23;7;6;181;533;17;7;0;11032;11;0;275;11;8;0;11052;11;0;280;10;9;0;5984;6;0;300;7
19.03.18;18:05:00;1;488;7228;0;2;0;6940;6;0;386;11;3;0;6232;6;2;473;14;4;0;7039;1;0;163;6;5;8;20365;26;0;2;415;622;19;6;0;15112;23;5;4;181;567;17;7;0;11032;6;0;337;11;8;0;11052;6;0;342;10;9;0;5984;6;0;363;8
19.03.18;18:00:00;1;1440;7189;0;2;0;6940;6;0;398;11;3;0;6232;6;2;494;14;4;0;7039;1;0;190;6;5;8;20364;26;0;0;428;669;19;6;0;15112;23;4;5;302;586;18;7;0;11032;6;0;385;11;8;0;11052;6;0;392;11;9;0;5984;6;0;406;8
19.03.18;17:55:00;1;2009;7089;0;2;0;6940;6;0;408;11;3;0;6232;4;3;500;15;4;0;7039;1;0;214;6;5;12;20363;26;1;3;433;687;20;6;0;15112;1;3;4;458;597;18;7;0;11032;6;0;413;11;8;0;11052;6;0;420;11;9;0;5984;6;0;437;8
19.03.18;17:50:00;1;2102;6908;0;2;3;6940;3;8;398;11;3;0;6232;6;4;520;15;4;0;7039;3;0;210;7;5;78;20361;4;16;20;390;621;21;6;7;15112;8;3;4;525;557;19;7;0;11032;6;1;449;12;8;0;11052;6;1;453;11;9;0;5984;6;1;492;8
19.03.18;17:45:00;1;2452;6719;0;2;3;6939;6;8;408;11;3;2;6231;6;6;529;15;4;0;7039;3;0;227;7;5;105;20355;4;35;31;390;621;21;6;52;15111;4;23;19;455;306;20;7;2;11032;4;2;469;12;8;2;11052;4;2;471;11;9;1;5984;6;3;520;8
19.03.18;17:40:00;1;2358;6514;0;2;4;6939;6;9;421;12;3;5;6231;6;15;516;15;4;2;7039;3;2;199;7;5;136;20346;4;51;48;390;621;21;6;73;15107;4;28;21;455;306;20;7;5;11032;3;12;466;12;8;9;11052;6;15;469;12;9;1;5984;6;7;516;9
19.03.18;17:35:00;1;1540;6317;0;2;27;6939;6;43;389;12;3;5;6231;6;12;548;15;4;7;7038;3;7;199;7;5;174;20334;4;71;57;390;621;21;6;93;15101;4;43;33;455;305;20;7;14;11032;6;25;454;12;8;17;11051;6;25;458;12;9;0;5983;6;0;580;9
19.03.18;17:30:00;1;320;6208;0;2;63;6936;4;88;354;12;3;6;6230;6;11;560;15;4;22;7038;3;23;198;7;5;216;20320;4;103;86;390;621;21;6;114;15093;4;65;52;455;306;20;7;46;11031;4;86;424;13;8;50;11050;4;88;437;12;9;9;5983;4;17;541;9
19.03.18;17:25:00;1;661;6165;0;2;79;6931;4;103;353;12;3;9;6230;4;15;558;16;4;42;7036;3;43;198;7;5;244;20301;4;111;102;390;621;21;6;132;15083;4;78;60;455;306;20;7;68;11027;4;101;423;13;8;68;11045;4;104;434;12;9;8;5983;6;13;567;9
19.03.18;17:20:00;1;395;6123;0;2;96;6925;4;122;354;12;3;62;6229;4;103;485;16;4;55;7033;3;57;198;8;5;285;20281;4;133;117;390;621;21;6;154;15072;4;98;70;455;306;20;7;100;11021;4;123;390;13;8;94;11040;4;128;410;12;9;17;5982;6;25;550;9
19.03.18;17:15:00;1;411;6092;0;2;117;6917;4;146;355;12;3;80;6224;4;121;488;16;4;76;7028;3;79;199;8;5;333;20257;4;166;140;390;621;21;6;178;15059;4;105;76;455;305;20;7;122;11013;4;151;409;13;8;126;11032;4;158;441;13;9;42;5980;6;58;525;9
19.03.18;17:10:00;1;687;6058;0;2;146;6907;4;174;354;12;3;102;6217;4;141;491;16;4;99;7022;5;103;200;8;5;393;20228;4;193;166;404;621;21;6;254;15044;4;126;150;455;477;20;7;159;11003;4;191;429;13;8;157;11022;4;191;421;13;9;85;5977;4;112;489;10
19.03.18;17:05:00;1;721;5980;0;2;184;6895;4;211;354;12;3;125;6208;4;166;522;16;4;135;7014;5;140;204;8;5;476;20196;4;230;197;413;641;21;6;353;15022;4;178;205;579;574;20;7;193;10990;4;245;466;13;8;216;11008;4;243;453;13;9;111;5970;4;142;517;10
19.03.18;17:00:00;1;2409;5897;0;2;213;6880;4;242;354;12;3;148;6198;4;186;475;16;4;166;7003;5;173;206;8;5;548;20156;4;275;229;413;646;21;6;411;14992;4;214;233;583;575;20;7;249;10974;4;285;454;13;8;254;10991;4;288;475;13;9;130;5961;4;166;535;10
19.03.18;16:55:00;1;2194;5706;0;2;226;6862;4;254;352;12;3;160;6186;4;200;506;16;4;179;6989;5;186;207;8;5;578;20110;4;295;247;415;673;21;6;443;14958;4;236;251;598;575;20;7;275;10953;4;299;471;13;8;262;10970;4;304;474;13;9;141;5950;4;173;533;10
19.03.18;16:50:00;1;2273;5523;0;2;229;6843;4;260;358;12;3;163;6172;4;205;515;16;4;181;6974;5;189;205;8;5;590;20062;4;301;253;408;650;21;6;452;14921;4;228;243;600;575;20;7;274;10931;4;312;471;13;8;277;10948;4;311;477;13;9;144;5938;4;176;532;10
19.03.18;16:45:00;1;2439;5335;0;2;256;6824;4;286;353;12;3;183;6159;4;223;511;16;4;204;6959;5;213;210;8;5;656;20012;4;323;279;425;698;22;6;490;14883;4;252;268;596;586;20;7;297;10908;4;338;483;13;8;298;10925;4;340;497;13;9;165;5927;4;195;520;10
19.03.18;16:40:00;1;1856;5148;0;2;275;6803;4;305;358;12;3;197;6144;4;241;517;16;4;220;6942;5;229;211;8;5;699;19957;4;343;297;412;711;22;6;521;14842;4;239;258;594;584;20;7;321;10883;4;366;492;14;8;324;10900;4;367;491;13;9;179;5913;4;211;535;11
19.03.18;16:35:00;1;567;4970;0;2;295;6780;4;326;354;12;3;209;6127;4;249;498;16;4;239;6923;5;249;211;9;5;752;19898;4;366;317;425;706;22;6;557;14798;4;283;295;599;583;20;7;357;10857;4;390;493;14;8;359;10873;4;395;483;13;9;194;5898;4;225;529;11
19.03.18;16:30:00;1;308;4924;0;2;315;6755;4;349;358;12;3;228;6110;4;267;506;16;4;261;6903;5;272;210;9;5;815;19835;4;398;339;427;699;22;6;596;14752;4;294;306;615;578;20;7;386;10827;4;433;475;14;8;399;10843;4;439;481;13;9;212;5882;4;246;525;11
19.03.18;16:25:00;1;270;4899;0;2;326;6729;4;359;357;12;3;233;6091;4;279;511;16;4;271;6882;5;282;210;9;5;824;19769;4;405;345;430;692;22;6;609;14702;4;290;301;619;586;20;7;402;10795;4;445;466;14;8;412;10810;4;452;489;13;9;223;5864;4;255;539;11
19.03.18;16:20:00;1;254;4876;0;2;355;6702;4;389;361;13;3;258;6071;4;302;524;16;4;296;6859;5;309;211;9;5;887;19700;4;436;379;424;689;22;6;659;14651;4;330;347;608;583;21;7;453;10761;4;494;463;14;8;462;10775;4;500;485;14;9;243;5845;4;282;524;11
19.03.18;16:15:00;1;254;4855;0;2;384;6672;4;421;365;13;3;281;6050;4;326;530;16;4;320;6835;5;333;215;9;5;956;19626;4;475;403;437;692;22;6;707;14595;4;359;359;612;588;21;7;481;10724;4;529;477;14;8;486;10737;4;530;497;14;9;264;5825;4;300;536;12
19.03.18;16:10:00;1;525;4834;0;2;451;6640;4;487;360;13;3;324;6026;4;374;527;17;4;377;6808;5;393;215;9;5;1087;19546;4;549;464;438;704;22;6;814;14536;4;419;428;611;594;21;7;568;10684;4;616;497;14;8;563;10696;4;615;493;14;9;303;5803;4;343;545;12
19.03.18;16:05:00;1;229;4780;0;2;484;6603;4;521;364;13;3;352;6000;4;400;528;17;4;407;6777;5;423;215;9;5;1171;19455;4;584;499;439;703;22;6;867;14468;4;451;468;617;589;21;7;633;10637;4;660;492;14;8;619;10650;4;669;497;14;9;330;5778;4;375;552;12
19.03.18;16:00:00;1;227;4761;0;2;477;6563;4;516;361;13;3;345;5970;4;394;518;17;4;404;6743;5;421;214;10;5;1165;19358;4;589;491;437;715;22;6;868;14395;4;441;454;614;591;21;7;601;10584;4;646;488;14;8;606;10598;4;651;487;14;9;325;5750;4;367;545;12
19.03.18;15:55:00;1;229;4742;0;2;516;6523;4;553;359;13;3;375;5941;4;425;530;17;4;436;6709;5;454;213;10;5;1254;19262;4;638;535;444;715;22;6;926;14322;4;449;451;614;591;21;7;640;10533;4;682;491;14;8;633;10547;4;684;487;14;9;340;5723;4;384;552;12
19.03.18;15:50:00;1;200;4723;0;2;664;6480;4;705;366;14;3;487;5910;4;543;537;17;4;571;6673;5;595;216;10;5;1580;19156;4;820;684;439;716;23;6;1186;14243;4;614;611;615;591;21;7;833;10480;4;885;501;15;8;836;10495;4;884;485;14;9;451;5695;4;498;548;12
19.03.18;15:45:00;1;515;4706;0;2;751;6425;4;795;366;14;3;554;5870;4;613;533;17;4;654;6626;5;681;216;10;5;1775;19023;4;931;773;440;710;23;6;1338;14144;4;659;657;618;590;21;7;965;10412;4;1026;498;15;8;963;10426;4;1029;503;14;9;525;5658;4;577;557;13
19.03.18;15:40:00;1;184;4662;0;2;751;6363;4;796;371;14;3;556;5824;4;613;532;17;4;657;6571;5;684;217;10;5;1811;18875;4;943;784;441;720;23;6;1363;14032;4;702;714;623;597;21;7;981;10332;4;1046;496;15;8;986;10346;4;1049;494;14;9;534;5614;4;585;543;13
19.03.18;15:35:00;1;184;4647;0;2;769;6300;4;815;377;14;3;573;5777;4;632;537;18;4;682;6516;5;710;217;10;5;1863;18724;4;961;816;443;719;23;6;1408;13919;4;732;728;619;597;21;7;997;10250;4;1060;501;15;8;999;10264;4;1062;502;14;9;543;5570;4;593;551;13
19.03.18;15:30:00;1;184;4631;0;2;825;6236;4;874;378;14;3;616;5730;4;678;546;18;4;733;6460;5;764;215;10;5;2005;18567;4;1044;875;441;729;23;6;1506;13800;4;794;793;622;594;21;7;1068;10167;4;1134;505;15;8;1074;10181;4;1132;494;14;9;582;5524;4;636;552;13
19.03.18;15:25:00;1;184;4616;0;2;862;6167;4;909;369;14;3;644;5678;4;707;542;18;4;763;6398;5;794;221;10;5;2070;18400;4;1089;909;442;725;23;6;1570;13675;4;808;800;620;598;21;7;1100;10078;4;1169;504;15;8;1110;10091;4;1174;497;14;9;602;5476;4;659;556;13
19.03.18;15:20:00;1;420;4600;0;2;884;6095;4;932;369;14;3;658;5625;4;723;548;18;4;781;6335;5;814;219;10;5;2103;18226;4;1103;925;442;728;23;6;1590;13543;4;812;800;624;593;21;7;1120;9986;4;1183;501;15;8;1124;9999;4;1192;501;15;9;610;5426;4;670;551;13
19.03.18;15:15:00;1;425;4558;0;2;906;6022;4;957;365;14;3;676;5570;4;741;550;18;4;809;6270;5;842;218;11;5;2136;18050;4;1137;931;443;734;23;6;1621;13411;4;855;836;623;593;21;7;1163;9892;4;1226;493;15;8;1169;9905;4;1231;499;15;9;631;5375;4;690;564;13
19.03.18;15:10:00;1;197;4541;0;2;920;5946;4;972;370;14;3;689;5513;4;753;541;18;4;818;6202;5;852;217;11;5;2212;17870;4;1154;962;445;725;23;6;1666;13275;4;858;834;623;595;21;7;1186;9795;4;1253;504;15;8;1185;9808;4;1252;499;15;9;644;5322;4;703;557;13
19.03.18;15:05:00;1;225;4524;0;2;935;5869;4;986;366;15;3;701;5456;4;766;551;18;4;833;6134;5;867;218;11;5;2241;17686;4;1181;989;446;724;23;6;1691;13137;4;863;855;624;592;21;7;1212;9697;4;1285;498;15;8;1224;9709;4;1286;495;15;9;664;5269;4;721;559;13
19.03.18;15:00:00;1;227;4505;0;2;961;5792;4;1011;363;15;3;721;5398;4;791;544;18;4;851;6065;5;887;220;11;5;2272;17499;4;1203;1004;442;725;23;6;1718;12995;4;882;868;626;593;21;7;1270;9596;4;1335;502;15;8;1266;9607;4;1335;498;15;9;688;5213;4;748;560;13
19.03.18;14:55:00;1;259;4487;0;2;1003;5712;4;1056;370;15;3;752;5338;4;822;548;18;4;887;5994;5;924;217;11;5;2363;17309;4;1258;1034;446;720;23;6;1774;12851;4;917;899;620;597;21;7;1313;9491;4;1376;507;15;8;1311;9501;4;1380;498;15;9;710;5156;4;772;554;13
19.03.18;14:50:00;1;902;4469;0;2;997;5628;4;1049;365;15;3;746;5275;4;816;551;18;4;880;5920;5;917;220;11;5;2322;17112;4;1223;1014;448;725;23;6;1755;12703;4;918;899;628;600;21;7;1304;9381;4;1369;504;15;8;1302;9392;4;1380;499;15;9;710;5097;4;770;561;13
19.03.18;14:45:00;1;195;4425;0;2;984;5545;4;1036;365;15;3;740;5213;4;809;553;18;4;866;5847;5;902;217;11;5;2232;16921;4;1172;976;449;724;23;6;1688;12558;4;880;869;625;595;21;7;1281;9272;4;1360;504;15;8;1290;9284;4;1361;499;15;9;694;5038;4;759;559;13
19.03.18;14:40:00;1;250;4409;0;2;1020;5463;4;1074;371;15;3;764;5151;4;836;552;18;4;895;5775;5;932;219;11;5;2325;16735;4;1220;1010;444;716;23;6;1747;12417;4;907;884;619;595;21;7;1357;9165;4;1422;505;15;8;1353;9176;4;1420;499;15;9;735;4980;4;798;557;13
19.03.18;14:35:00;1;250;4388;0;2;981;5378;4;1033;367;15;3;737;5087;4;809;548;18;4;870;5700;5;906;220;11;5;2298;16542;4;1211;1012;450;724;23;6;1738;12272;4;905;894;623;599;21;7;1305;9053;4;1379;500;15;8;1312;9063;4;1385;505;15;9;714;4918;4;776;558;13
19.03.18;14:30:00;1;252;4367;0;2;1000;5296;4;1054;366;15;3;752;5026;4;822;548;18;4;891;5628;5;928;221;11;5;2382;16351;4;1252;1041;453;718;23;6;1797;12127;4;941;918;626;599;21;7;1313;8944;4;1393;498;15;8;1326;8954;4;1399;503;15;9;716;4859;4;776;563;14
19.03.18;14:25:00;1;545;4346;0;2;1047;5213;4;1102;377;15;3;799;4963;4;867;551;18;4;944;5553;5;983;222;11;5;2518;16152;4;1324;1100;448;738;23;6;1900;11977;4;975;957;629;601;21;7;1402;8834;4;1475;510;15;8;1408;8844;4;1479;506;15;9;769;4799;4;830;560;14